Location: ??????
(41.3164°N, 22.6615°E)
Time: 06:01:42
(UTC+00:00)

YUBILEINY - Visible Passes

Search period start: 28 June 2022 00:00
Search period end: 08 July 2022 00:00
Orbit: 1479 x 1507 km, 82.5° (Epoch: 27 June)

Date Brightness Start Highest point End Pass type
(mag) Time Alt. Az. Time Alt. Az. Time Alt. Az.
29 Jun ? 01:45:53 10° N 01:53:20 29° ENE 02:00:41 10° SE visible
29 Jun ? 18:49:50 10° NW 18:50:16 10° NW 18:50:42 10° NW visible
30 Jun ? 00:57:46 10° NNE 01:02:46 16° ENE 01:07:43 10° E visible
01 Jul ? 02:03:01 10° N 02:11:21 44° ENE 02:19:34 10° SE visible
02 Jul ? 01:14:12 10° NNE 01:21:06 25° ENE 01:27:56 10° ESE visible
03 Jul ? 00:26:42 10° NNE 00:30:23 13° NE 00:34:03 10° E visible
03 Jul ? 02:20:24 10° N 02:29:10 66° E 02:37:50 10° SSE visible
04 Jul ? 01:31:12 10° N 01:39:13 37° ENE 01:47:07 10° SE visible
05 Jul ? 00:42:37 10° NNE 00:48:51 21° ENE 00:54:59 10° ESE visible
05 Jul ? 23:56:51 10° NE 23:57:58 10° NE 23:59:05 10° ENE visible
06 Jul ? 01:48:29 10° N 01:57:07 56° ENE 02:05:37 10° SSE visible
07 Jul ? 00:59:26 10° N 01:07:02 31° ENE 01:14:32 10° SE visible
